This demonstration page uses our WeatherBlox Daily Observations layout. Learn more.

Left ArrowRight Arrow

39.51506, -84.39828

Hourly Observations for March 4, 2020

Temp ( °F °C ) Dew Point ( °F °C ) Humidity (%) Winds ( mph kmh ) Pressure ( in mb ) Visibility ( mi km ) Precip ( " mm )
12:15 am 00:15 Clear 36 2.1 33 0.5 89 89 Calm 29.95 1014 10 16.0934 0 0
12:35 am 00:35 Clear 34 1.3 32 0.2 92 92 Calm 29.95 1014 10 16.0934 0 0
12:55 am 00:55 Clear 33 0.6 31 -0.5 92 92 Calm 29.94 1014 10 16.0934 0 0
1:15 am 01:15 Clear 34 1 32 0 93 93 Calm 29.94 1014 10 16.0934 0 0
1:35 am 01:35 Clear 33 0.5 31 -0.3 94 94 Calm 29.94 1014 10 16.0934 0 0
1:55 am 01:55 Clear 33 0.3 31 -0.4 95 95 Calm 29.94 1014 10 16.0934 0 0
2:15 am 02:15 Clear 31 -0.5 30 -1 96 96 Calm 29.95 1014 10 16.0934 0 0
2:35 am 02:35 Clear 31 -0.5 30 -0.9 97 97 Calm 29.96 1014 10 16.0934 0 0
2:55 am 02:55 Clear 30 -1.1 29 -1.4 98 98 Calm 29.96 1014 10 16.0934 0 0
3:15 am 03:15 Clear 32 0.1 31 -0.3 97 97 Calm 29.94 1014 10 16.0934 0 0
3:35 am 03:35 Clear 32 -0.1 31 -0.4 98 98 SW 5 7 29.95 1014 10 16.0934 0 0
3:55 am 03:55 Clear 31 -0.8 30 -1.3 96 96 SW 5 7 29.96 1014 10 16.0934 0 0
4:15 am 04:15 Clear 32 0.2 31 -0.4 96 96 SW 5 7 29.95 1014 10 16.0934 0 0
4:35 am 04:35 Clear 31 -0.7 30 -1.2 96 96 Calm 29.96 1014 10 16.0934 0 0
4:55 am 04:55 Clear 31 -0.5 30 -1.2 95 95 Calm 29.96 1014 10 16.0934 0 0
5:15 am 05:15 Clear 31 -0.7 29 -1.6 94 94 Calm 29.97 1015 10 16.0934 0 0
5:35 am 05:35 Clear 31 -0.5 31 -0.7 99 99 Calm 29.97 1015 10 16.0934 0 0
5:55 am 05:55 Clear 29 -1.9 28 -2.4 96 96 Calm 29.97 1015 10 16.0934 0 0
6:15 am 06:15 Clear 29 -1.5 29 -1.9 97 97 Calm 29.97 1015 10 16.0934 0 0
6:35 am 06:35 Clear 30 -1.2 29 -1.5 98 98 Calm 29.96 1015 10 16.0934 0 0
6:55 am 06:55 Clear 29 -1.9 28 -2.2 98 98 Calm 29.96 1015 10 16.0934 0 0
7:15 am 07:15 Sunny 28 -2.2 27 -2.6 97 97 Calm 29.95 1014 10 16.0934 0 0
7:35 am 07:35 Sunny 29 -1.5 29 -1.7 99 99 Calm 29.95 1014 10 16.0934 0 0
7:55 am 07:55 Partly Cloudy 32 0.2 31 -0.3 96 96 Calm 29.94 1014 10 16.0934 0 0
8:15 am 08:15 Mostly Cloudy 35 1.9 33 0.4 90 90 Calm 29.93 1014 10 16.0934 0 0
8:35 am 08:35 Cloudy 41 4.8 34 1.1 77 77 SSW 5 7 29.91 1013 10 16.0934 0 0
8:55 am 08:55 Cloudy 42 5.3 33 0.7 73 73 SW 6 9 29.92 1013 10 16.0934 0 0
9:15 am 09:15 Cloudy 43 6.1 33 0.6 68 68 SW 7 11 29.92 1013 10 16.0934 0.01 0.254
9:35 am 09:35 Cloudy 44 6.5 33 0.3 65 65 SSW 10 17 29.93 1013 10 16.0934 0.01 0.254
9:55 am 09:55 Cloudy 44 6.9 32 0.1 62 62 SSW 12 19 29.93 1013 10 16.0934 0.01 0.254
10:15 am 10:15 Cloudy 46 8 33 0.5 59 59 SW 8 13 29.91 1013 10 16.0934 0 0
10:35 am 10:35 Cloudy 50 10 33 0.4 52 52 SSW 16 26 29.9 1012 10 16.0934 0 0
10:55 am 10:55 Cloudy 52 11.1 32 0.1 47 47 SSW 15 24 29.89 1012 10 16.0934 0 0
11:15 am 11:15 Cloudy 53 11.4 31 -0.4 44 44 SW 13 20 29.89 1012 10 16.0934 0 0
11:35 am 11:35 Cloudy 54 12.4 30 -1.1 40 40 SW 16 26 29.89 1012 10 16.0934 0 0
11:55 am 11:55 Mostly Cloudy 56 13.1 30 -1 38 38 SW 15 24 29.88 1012 10 16.0934 0 0
12:15 pm 12:15 Cloudy 56 13.1 31 -0.8 39 39 SW 17 28 29.88 1012 10 16.0934 0 0
12:35 pm 12:35 Mostly Cloudy 58 14.7 31 -0.6 35 35 SW 16 26 29.87 1011 10 16.0934 0 0
12:55 pm 12:55 Mostly Cloudy 59 15.1 32 0 36 36 SW 10 17 29.87 1011 10 16.0934 0 0
1:15 pm 13:15 Mostly Cloudy 60 15.6 31 -0.6 33 33 WSW 21 33 29.86 1011 10 16.0934 0 0
1:35 pm 13:35 Partly Cloudy 59 15.1 31 -0.8 34 34 W 18 30 29.87 1011 10 16.0934 0 0
1:55 pm 13:55 Sunny 61 16.1 32 0.2 34 34 W 21 33 29.85 1011 10 16.0934 0 0
2:15 pm 14:15 Sunny 60 15.5 32 0 35 35 WNW 14 22 29.88 1012 10 16.0934 0 0
2:35 pm 14:35 Sunny 60 15.3 34 1.2 39 39 WNW 14 22 29.88 1012 10 16.0934 0 0
2:55 pm 14:55 Sunny 59 14.8 34 0.9 39 39 NW 22 35 29.89 1012 10 16.0934 0 0
3:15 pm 15:15 Sunny 58 14.3 33 0.8 40 40 NW 13 20 29.91 1013 10 16.0934 0 0
3:35 pm 15:35 Sunny 57 14.1 34 0.9 41 41 W 16 26 29.93 1014 10 16.0934 0 0
3:55 pm 15:55 Partly Cloudy 57 14 35 1.6 43 43 WNW 13 20 29.95 1014 10 16.0934 0 0
4:15 pm 16:15 Sunny 57 13.8 35 1.6 44 44 WNW 15 24 29.96 1015 10 16.0934 0 0
4:35 pm 16:35 Sunny 56 13.4 33 0.7 42 42 NW 17 28 29.96 1015 10 16.0934 0 0
4:55 pm 16:55 Sunny 55 13 31 -0.3 40 40 NW 10 17 29.97 1015 10 16.0934 0 0
5:15 pm 17:15 Sunny 55 12.6 28 -2.1 36 36 WNW 13 20 29.98 1015 10 16.0934 0 0
5:35 pm 17:35 Sunny 54 12.1 29 -1.9 38 38 W 10 17 29.98 1015 10 16.0934 0 0
5:55 pm 17:55 Sunny 52 10.9 29 -1.9 41 41 WNW 9 15 30 1016 10 16.0934 0 0
6:15 pm 18:15 Sunny 50 10.1 28 -2 43 43 WNW 8 13 30 1016 10 16.0934 0 0
6:35 pm 18:35 Clear 48 9.1 29 -1.8 47 47 WNW 6 9 30.01 1016 10 16.0934 0 0
6:55 pm 18:55 Clear 48 9 29 -1.4 48 48 WNW 8 13 30.02 1017 10 16.0934 0 0
7:15 pm 19:15 Clear 46 7.8 30 -1.2 53 53 NW 8 13 30.04 1017 10 16.0934 0 0
7:35 pm 19:35 Clear 46 7.6 30 -1.1 54 54 WNW 7 11 30.07 1018 10 16.0934 0 0
7:55 pm 19:55 Clear 44 6.9 30 -0.9 58 58 NW 8 13 30.09 1019 10 16.0934 0 0
8:15 pm 20:15 Clear 44 6.7 30 -1 58 58 WNW 3 6 30.11 1020 10 16.0934 0 0
8:35 pm 20:35 Clear 44 6.9 30 -1 58 58 Calm 30.1 1019 10 16.0934 0 0
8:55 pm 20:55 Clear 43 6.1 31 -0.6 63 63 N 5 7 30.1 1019 10 16.0934 0 0
9:15 pm 21:15 Clear 40 4.5 32 -0.1 72 72 NNE 5 7 30.11 1020 10 16.0934 0 0
9:35 pm 21:35 Clear 40 4.2 30 -1 69 69 N 6 9 30.12 1020 10 16.0934 0 0
9:55 pm 21:55 Clear 40 4.3 30 -0.9 69 69 N 5 7 30.13 1020 10 16.0934 0 0
10:15 pm 22:15 Clear 39 4 30 -1.3 69 69 N 5 7 30.13 1020 10 16.0934 0 0
10:35 pm 22:35 Clear 39 3.8 29 -1.4 69 69 NNE 3 6 30.14 1020 10 16.0934 0 0
10:55 pm 22:55 Clear 37 2.8 30 -1.1 76 76 N 3 6 30.14 1021 10 16.0934 0 0
11:15 pm 23:15 Clear 36 2.4 29 -1.5 76 76 Calm 30.14 1021 10 16.0934 0 0
11:35 pm 23:35 Clear 35 1.7 29 -1.8 78 78 Calm 30.15 1021 10 16.0934 0 0
11:55 pm 23:55 Clear 33 0.5 29 -1.7 85 85 Calm 30.15 1021 10 16.0934 0 0

Powered by AerisWeather